Wind_Gust
6 9 9 11 7 6 10 10 10 13 12 8 11 13 14 12 12 13 11 11 10 11 12 14 14 12 11 11 12 13 15 15 15 17 15 12 21 20 16 16 14 13 14 12 9 18 16 19 15 11 10 12 13 14 15 14 13 14 13 11 12 11 10
7 8 8 6 5 4 7 11 16 18 14 12 8 11 11 10 11 10 9 10 12 13 13 14 12 11 12 12 13 13 14 15 15 14 16 15 15 17 17 18 16 16 13 13 10 8 15 15 13 18 15 10 13 15 14 12 11 11 13 14 13 13 12
5 5 3 3 4 3 3 8 11 11 9 10 11 12 11 10 11 10 10 11 12 14 15 14 13 13 13 15 16 15 15 16 15 14 15 15 15 16 17 17 18 15 14 16 14 13 12 12 16 21 16 17 17 19 15 15 13 12 11 11 12 12 12
5 5 6 6 4 4 4 4 8 10 11 11 9 10 11 11 9 9 10 12 12 14 15 14 14 15 15 15 14 15 19 19 17 16 16 17 15 15 16 17 20 21 23 23 18 18 15 13 10 15 15 19 21 15 16 15 14 13 13 12 13 13 13
4 5 5 6 6 6 6 7 4 7 10 9 9 11 12 11 11 10 9 11 13 14 16 13 14 14 15 13 13 13 12 13 14 16 15 15 15 15 18 17 18 19 17 17 20 19 19 17 17 16 17 16 11 13 8 13 13 15 15 15 14 13 13
5 5 5 5 6 7 8 7 6 7 6 7 9 10 12 11 11 11 11 12 13 14 15 13 13 14 14 13 14 15 15 16 17 17 17 17 17 18 18 18 17 17 18 16 14 17 15 11 14 14 13 15 20 16 10 13 18 11 14 17 15 14 13
7 7 7 8 9 8 7 7 6 6 7 8 8 9 12 10 10 12 12 12 13 14 14 14 14 13 13 14 13 16 16 16 16 16 17 16 17 18 15 14 17 18 18 15 15 14 16 15 13 15 15 14 9 12 8 14 10 12 11 13 12 13 12
7 6 6 6 6 8 8 7 6 5 6 7 8 9 8 9 10 11 11 12 13 14 14 14 14 14 13 14 15 18 20 18 18 19 18 16 19 18 15 17 17 17 16 15 15 15 15 17 18 17 19 17 12 11 11 11 10 14 13 11 13 14 14
6 5 6 7 7 5 6 5 6 6 7 7 8 8 9 8 10 10 10 12 13 13 15 15 15 14 13 15 16 14 16 14 15 17 17 17 18 16 16 16 14 14 14 13 15 14 16 15 12 15 18 20 20 17 12 15 13 14 12 14 10 12 13
9 7 6 7 8 8 7 7 7 7 7 7 9 8 10 10 10 10 11 12 13 14 15 14 15 15 14 15 15 15 16 14 15 17 17 17 15 16 16 15 16 14 13 12 13 13 12 12 14 15 18 21 19 20 20 18 17 18 15 18 16 15 13
6 6 7 7 8 8 8 8 8 9 9 9 8 9 8 10 12 12 11 12 12 12 13 14 15 15 14 15 14 15 15 13 15 14 15 16 15 14 14 14 14 14 12 11 11 12 13 14 14 16 15 14 17 21 20 22 20 18 14 14 15 16 14
8 8 7 8 8 7 8 9 9 9 9 9 9 9 10 10 10 10 10 12 12 13 13 14 13 14 13 13 11 12 13 13 13 14 14 14 13 14 15 16 14 14 12 12 14 13 11 13 14 13 13 12 13 15 19 16 18 14 13 18 16 11 18
7 7 8 8 10 9 9 10 11 11 12 11 10 10 10 10 11 12 11 12 13 13 13 13 12 12 13 13 13 13 13 13 16 14 12 13 12 12 13 14 14 13 11 10 11 11 11 13 12 10 12 11 12 13 14 15 17 16 14 16 11 12 15
8 8 8 10 10 10 11 11 11 11 11 11 12 12 12 12 12 12 12 12 13 13 13 13 12 11 12 11 12 12 12 12 14 16 12 13 13 12 12 12 12 12 10 11 11 10 12 13 13 12 10 11 11 13 14 13 14 9 7 4 12 15 14
8 10 11 12 12 12 12 11 11 10 10 12 12 13 13 12 12 13 13 12 12 12 12 12 12 11 11 10 12 12 12 13 12 13 10 11 11 11 10 10 9 10 13 13 11 12 12 12 12 12 12 15 12 10 13 19 13 13 14 6 10 10 15
12 11 12 12 13 12 11 10 10 11 12 13 12 12 13 14 15 14 13 12 11 11 13 11 10 9 10 11 12 12 14 13 12 12 13 13 12 10 10 11 11 10 10 11 10 12 12 13 14 14 16 13 12 12 13 14 15 12 12 13 11 16 16
12 12 13 13 12 10 11 10 11 12 12 12 14 13 14 17 17 18 18 19 16 13 12 11 10 9 9 9 9 10 11 10 12 11 11 12 10 9 10 10 10 8 9 10 9 10 12 14 16 15 11 12 13 12 13 13 11 11 15 15 11 19 19
12 13 13 12 11 10 10 12 12 13 14 14 14 14 15 16 16 17 18 18 18 18 17 13 11 10 8 6 8 9 8 9 8 10 8 10 10 12 11 12 10 9 10 10 11 11 12 14 13 15 17 16 15 13 13 13 14 14 17 20 14 11 13
11 11 11 11 10 12 13 14 15 15 16 16 16 15 15 16 17 18 18 18 16 18 16 15 14 12 9 6 6 5 3 4 5 7 10 10 8 10 11 10 10 12 12 14 15 13 13 14 12 16 17 14 16 15 14 14 14 13 15 15 16 12 12
11 11 10 11 12 13 14 14 16 17 16 16 16 18 18 18 18 16 17 16 17 17 15 14 15 13 12 10 8 8 5 4 5 7 8 7 7 4 6 8 9 11 13 17 13 14 16 12 14 15 16 17 17 17 16 16 18 17 14 14 12 12 18
11 11 11 13 13 13 14 15 16 16 16 17 17 17 18 18 18 16 16 17 16 15 14 14 15 14 12 12 7 8 7 5 5 6 7 9 7 5 4 7 6 8 11 14 12 13 15 15 13 11 13 16 15 15 14 13 14 14 14 15 16 17 17
10 11 12 13 14 14 15 14 15 16 17 18 17 17 17 18 18 19 18 17 17 15 13 15 14 13 12 12 6 4 7 7 6 7 6 7 7 4 3 5 6 6 6 12 14 14 12 10 13 14 12 14 15 17 16 15 15 15 13 15 14 10 13
10 10 13 15 15 15 15 16 17 17 17 17 17 17 17 17 17 19 19 19 17 15 18 16 18 17 13 9 10 11 12 15 15 14 11 9 8 8 9 10 9 11 9 10 10 12 13 11 10 10 15 18 18 18 17 19 19 19 20 19 20 20 19
12 13 13 14 14 15 15 15 16 16 16 17 17 17 16 18 18 17 18 18 20 17 18 21 21 21 21 19 15 16 16 17 17 17 17 17 15 10 8 9 10 10 11 9 13 12 13 12 11 11 9 8 8 14 20 17 17 20 25 22 20 20 23
13 14 14 15 15 14 14 15 16 16 17 18 18 17 19 17 18 17 18 18 19 19 19 22 22 21 23 22 18 19 19 17 18 18 18 17 17 16 12 11 11 10 11 9 9 8 11 11 10 12 12 10 10 8 8 11 14 17 16 17 16 19 19
13 14 14 14 14 14 15 17 18 17 18 16 15 18 18 19 19 20 20 18 21 21 21 24 23 23 22 21 21 19 20 20 19 18 19 19 18 18 15 12 12 13 13 14 10 8 11 12 12 14 13 15 16 17 14 11 6 7 8 14 16 16 15
13 13 12 14 14 16 18 18 17 16 15 17 18 18 19 20 19 22 20 18 20 24 22 24 25 23 22 22 21 19 20 20 19 20 20 19 19 19 18 18 15 15 14 14 10 9 11 12 14 17 18 17 17 19 18 18 11 11 11 11 11 14 7
13 13 13 13 15 17 16 16 17 16 16 17 19 19 18 20 18 18 19 20 22 24 26 28 26 25 22 20 20 17 20 20 21 21 20 21 20 19 19 19 17 16 16 14 14 12 12 13 16 18 19 16 17 18 19 20 18 15 18 18 20 15 14
13 12 13 13 14 16 16 16 16 15 16 16 16 17 19 20 21 21 21 22 23 23 26 28 26 26 24 20 17 20 21 21 21 20 24 20 21 20 18 17 16 16 15 16 17 18 14 16 18 19 20 19 20 22 23 17 20 22 21 18 17 18 17
12 13 13 14 15 15 15 15 15 14 17 18 20 21 19 20 20 22 24 23 23 23 25 27 27 27 26 23 16 20 20 22 22 23 22 18 23 24 24 21 17 16 18 18 18 20 19 18 20 20 21 20 20 22 18 16 18 20 21 22 21 20 19
13 13 13 15 15 15 15 14 15 14 17 18 21 18 17 22 23 24 25 25 22 22 24 28 29 28 27 25 18 20 18 20 21 22 24 24 22 22 31 36 27 20 23 22 21 21 18 20 21 18 19 22 25 24 20 15 16 18 15 20 22 23 24
13 13 14 13 14 15 14 15 13 14 16 17 17 16 19 22 23 24 22 22 25 26 24 24 27 26 27 24 20 18 18 20 24 22 22 23 22 23 25 26 32 28 23 23 29 26 24 22 23 19 18 23 24 24 16 15 19 21 22 24 24 25 25
13 13 14 13 14 14 13 13 14 15 16 16 17 17 19 22 24 23 23 25 26 24 24 24 27 26 26 25 21 20 20 25 24 22 22 23 25 24 24 24 27 26 29 28 28 27 27 25 22 19 19 22 23 22 15 19 19 19 21 21 20 21 21
14 13 13 14 13 14 13 14 13 14 15 14 16 19 20 18 21 21 22 22 25 25 24 23 27 28 27 27 26 20 23 22 17 20 23 25 23 23 23 24 22 26 29 29 28 28 27 26 22 24 21 21 17 13 14 19 20 16 21 20 21 21 21
13 13 13 14 15 16 14 13 14 13 12 14 18 19 16 17 19 19 19 19 20 21 22 24 23 25 27 27 27 25 22 19 15 16 25 23 21 22 21 21 21 23 29 29 29 28 27 25 25 25 26 21 22 21 20 16 16 18 19 19 20 22 22
14 14 15 14 15 16 13 15 14 12 12 15 18 18 17 15 17 18 19 19 18 18 19 23 24 24 25 26 26 26 23 18 16 21 23 23 19 17 16 17 18 22 27 29 30 29 26 25 22 25 24 22 20 20 18 18 17 19 19 19 20 21 20
15 14 13 14 15 14 13 13 13 13 13 15 17 19 16 14 17 19 19 18 18 18 17 17 18 21 22 23 23 24 23 22 20 20 21 20 15 16 17 17 18 21 24 25 26 27 27 25 27 25 24 23 21 18 19 19 18 18 17 18 19 19 18
Wind_Speed
1 2 2 2 1 2 4 2 3 5 4 4 6 5 4 4 4 4 4 5 5 5 5 6 7 5 4 4 6 7 8 7 7 7 8 6 8 6 6 6 7 5 2 3 1 6 2 5 6 3 4 7 5 7 9 8 8 8 7 6 6 6 6
0 0 0 0 2 1 4 2 2 4 5 3 4 5 5 5 4 3 3 4 4 5 5 5 5 6 7 7 6 6 7 8 8 8 8 7 7 8 5 6 6 5 5 5 3 3 4 5 5 9 7 5 4 5 5 6 6 6 7 8 7 7 7
3 2 2 1 1 2 1 3 2 3 5 6 5 3 5 6 5 4 4 5 6 5 4 5 5 6 7 7 7 7 7 9 7 7 8 8 7 8 9 7 7 6 7 6 5 5 4 4 5 8 8 9 9 8 7 7 7 7 6 6 7 7 6
2 1 2 1 1 1 2 1 3 4 4 5 5 6 5 6 5 4 4 6 6 6 6 5 6 6 7 7 7 9 9 10 9 9 10 10 8 6 8 8 9 9 10 10 10 8 7 6 4 4 7 9 10 7 9 9 8 7 7 6 7 7 7
1 2 2 2 2 3 2 3 2 4 4 5 5 6 7 5 4 5 5 6 6 6 6 5 6 6 6 7 7 7 6 7 7 7 7 9 9 7 8 8 8 9 9 8 8 8 8 8 8 7 8 7 5 5 4 7 7 7 8 8 8 7 7
4 3 3 2 1 2 2 3 2 3 4 4 5 5 7 7 5 5 6 6 6 5 6 6 7 7 7 7 8 8 8 9 9 9 8 8 9 9 8 9 9 8 9 8 5 7 7 5 5 5 4 7 8 6 4 7 6 6 8 9 8 7 7
4 4 5 4 4 3 3 3 3 4 4 5 5 5 6 6 4 5 5 5 5 6 6 7 7 7 8 7 7 8 9 9 7 9 8 10 9 11 9 8 9 9 10 8 8 7 8 7 6 7 6 4 4 5 2 6 5 4 4 6 7 7 7
4 4 3 3 2 3 3 2 3 3 3 4 5 5 5 5 5 5 5 6 5 6 7 7 7 7 8 8 8 9 8 7 7 8 8 10 11 11 9 9 9 8 9 8 8 8 8 8 9 8 9 9 5 4 5 5 4 8 5 5 7 7 7
3 3 4 4 3 2 3 2 4 4 4 5 4 4 6 5 5 6 6 6 6 7 8 8 8 8 8 8 8 8 9 6 8 9 9 9 10 10 10 9 7 7 7 7 8 8 8 8 6 6 7 8 9 7 5 7 6 6 7 5 5 7 8
5 5 4 3 3 3 3 3 4 4 4 4 5 4 6 5 5 5 6 6 6 7 8 8 8 7 7 8 8 8 8 7 6 8 8 8 9 9 9 9 8 7 6 6 6 7 7 6 5 5 7 8 8 9 7 7 7 7 8 8 6 6 8
4 3 3 3 3 3 4 4 5 5 5 5 5 5 5 6 6 6 6 6 6 6 7 7 7 7 8 8 8 8 8 7 6 7 7 8 9 7 5 6 6 6 5 5 6 7 7 6 6 6 7 5 5 8 7 9 8 7 6 7 7 6 8
3 4 4 5 4 4 5 5 5 5 5 5 5 5 6 6 6 6 6 6 6 6 6 7 7 7 7 7 6 6 5 5 6 7 7 8 7 5 6 7 6 6 5 6 6 6 6 6 6 6 6 6 5 3 6 8 6 4 5 7 7 6 9
4 3 3 4 5 5 5 5 5 6 6 5 6 6 6 6 7 7 6 6 7 7 7 7 6 6 7 6 7 6 6 6 7 7 6 5 5 6 8 7 7 7 5 5 6 5 6 6 6 6 6 6 5 4 1 2 4 3 4 7 5 5 8
4 4 5 6 6 6 6 6 6 6 6 6 6 7 7 7 7 7 7 7 7 7 7 7 6 6 6 6 6 6 6 6 8 7 6 6 6 6 7 6 7 7 6 7 6 6 6 7 7 6 5 5 6 5 5 5 6 3 1 1 5 6 7
5 6 7 7 7 7 7 6 6 6 6 6 6 7 8 7 7 8 7 7 7 7 7 7 6 5 5 6 6 6 5 6 6 7 6 7 6 5 3 6 5 6 8 8 6 6 6 6 7 7 6 6 5 5 5 4 4 3 5 2 4 3 5
7 7 7 7 8 7 6 6 5 5 6 6 6 6 8 9 9 9 8 7 7 7 8 7 6 5 5 5 6 5 5 6 6 6 5 5 6 4 5 6 7 6 5 5 6 5 6 6 6 6 6 6 6 6 6 8 6 6 6 4 4 6 6
8 7 7 6 6 5 5 5 5 6 7 7 8 7 8 10 10 10 10 11 10 8 7 7 6 5 5 5 5 4 4 4 4 4 4 4 5 4 6 6 5 4 5 5 4 5 5 5 5 5 6 6 6 7 8 8 7 5 3 6 4 5 6
7 7 6 6 7 6 6 6 7 8 8 8 8 8 9 9 9 9 9 10 10 10 11 9 7 6 5 3 3 4 4 3 3 2 3 3 4 5 6 5 2 2 4 5 5 6 6 8 8 8 9 8 8 7 6 6 7 7 7 8 6 5 6
5 6 6 6 7 7 8 9 9 8 9 9 9 9 9 9 9 10 9 10 9 10 8 8 8 8 6 4 3 2 2 1 2 1 1 2 3 1 3 3 4 5 6 6 6 5 5 7 7 8 7 6 7 7 7 6 6 6 7 6 8 4 5
6 5 6 7 7 8 8 9 10 9 8 8 9 9 10 10 9 9 9 8 9 9 9 8 8 7 7 6 4 3 1 0 2 1 0 1 1 1 3 2 4 5 5 4 4 6 5 5 6 7 7 7 7 7 7 7 6 6 6 7 5 5 6
6 6 7 7 7 7 8 8 8 8 8 9 9 9 9 9 8 7 8 8 8 8 8 7 8 7 7 7 3 2 1 1 2 3 4 5 4 3 1 1 2 1 3 5 6 4 5 6 5 6 5 6 6 7 7 6 6 7 6 7 8 7 7
5 6 6 6 7 8 8 8 7 8 8 8 7 8 8 8 8 9 8 8 9 8 7 8 6 7 6 6 4 2 3 4 4 4 3 2 2 2 2 2 1 3 4 6 7 3 3 5 6 6 5 5 7 8 8 8 7 6 6 6 5 4 6
5 6 6 7 7 7 7 7 7 8 9 9 8 8 8 8 8 9 9 11 10 8 10 8 12 11 4 3 6 7 7 9 9 8 7 6 5 5 4 2 2 5 6 7 7 6 4 6 6 6 6 7 8 7 8 8 7 7 7 7 8 9 9
6 6 6 7 7 8 8 7 8 9 9 9 9 9 8 10 10 8 10 11 12 9 10 11 18 17 17 16 10 9 9 8 8 9 9 10 9 7 4 4 5 5 6 5 2 2 4 4 5 6 9 8 7 7 8 7 7 7 7 8 7 8 9
5 6 7 8 9 8 8 8 8 9 9 10 10 9 10 10 9 9 9 10 11 11 11 17 18 17 17 16 13 9 9 9 8 8 8 9 9 9 7 6 7 6 6 6 3 3 4 3 2 1 5 7 8 6 2 6 7 6 5 5 6 9 10
5 6 8 8 8 8 8 8 8 9 10 9 8 10 10 10 9 9 9 10 12 13 11 19 19 18 17 16 15 11 9 10 10 10 9 9 9 9 9 7 7 7 7 12 6 5 5 4 6 10 12 13 14 15 12 10 4 3 4 5 6 6 5
6 7 7 8 8 8 8 9 8 8 7 7 8 9 9 11 11 10 11 10 9 10 11 18 20 19 18 18 16 12 9 10 11 10 10 9 9 10 10 9 8 8 8 8 6 4 5 6 8 9 10 10 9 13 14 14 10 1 3 3 3 5 1
6 7 7 8 7 8 8 8 9 8 8 8 9 10 10 11 10 10 11 11 11 12 13 22 21 21 19 17 16 12 10 11 11 12 11 11 12 11 11 9 9 9 9 7 8 8 7 8 9 10 10 8 8 10 11 11 9 7 5 5 5 4 3
6 7 8 8 8 8 8 9 9 7 7 8 8 9 10 11 12 12 11 12 12 13 14 22 21 21 20 16 13 10 10 12 12 11 12 11 12 11 10 10 8 9 8 8 13 15 11 9 10 11 11 11 11 13 13 11 15 16 12 10 8 7 6
6 7 7 8 8 8 8 9 8 6 8 9 10 11 10 11 10 12 13 12 13 12 13 19 21 21 20 19 11 10 10 11 11 12 12 11 12 14 12 11 10 10 11 12 14 16 16 15 11 11 11 12 11 12 10 9 12 16 17 17 17 16 16
6 7 7 8 7 8 8 7 7 6 8 9 10 9 9 11 12 12 13 13 12 12 13 18 21 19 19 18 13 11 9 10 12 12 12 13 12 12 17 25 17 12 13 13 17 17 15 14 12 10 11 13 14 14 11 8 8 10 13 15 17 18 18
7 7 8 7 7 8 7 7 6 6 7 8 9 8 10 11 11 12 11 12 17 15 13 15 21 19 18 16 12 9 9 10 12 12 11 12 12 11 12 15 22 17 15 17 22 20 19 16 13 10 10 14 14 14 9 9 11 12 13 14 14 15 15
7 7 7 7 7 7 5 5 6 6 7 7 8 9 10 10 12 11 11 13 12 12 13 13 17 21 20 20 16 10 10 12 12 12 12 12 13 13 13 13 17 21 23 23 21 21 19 18 13 10 11 12 11 12 7 11 11 10 12 12 11 12 12
7 7 6 6 6 6 6 6 6 6 7 7 8 10 11 10 11 10 10 11 12 13 11 12 16 22 21 22 21 15 11 11 8 9 11 13 12 12 12 12 12 19 23 23 22 22 21 20 16 12 11 10 9 7 7 10 12 14 12 11 11 12 11
7 7 7 6 7 7 6 6 6 6 6 7 10 11 9 9 9 9 9 10 10 11 13 17 13 19 21 21 21 20 13 11 8 8 12 12 11 11 11 11 11 16 23 23 23 22 22 20 19 13 14 15 16 15 11 8 8 9 9 9 10 11 11
7 7 7 7 7 7 5 6 6 6 6 8 10 10 10 8 9 9 9 9 9 10 10 11 17 15 19 20 20 20 18 13 14 12 12 12 10 9 9 10 10 17 21 22 22 22 20 19 16 14 18 17 16 15 12 9 9 10 10 10 11 11 11
8 7 8 8 7 6 6 5 6 6 6 7 9 10 8 8 9 10 10 9 9 8 8 8 13 17 15 19 18 19 18 17 16 11 11 10 8 9 9 10 11 17 19 20 20 20 21 19 15 17 16 15 14 12 9 9 9 9 9 9 10 10 9
Wind_Direction
184 234 288 324 93 129 119 175 242 263 262 246 274 283 270 255 239 225 215 223 227 231 229 231 245 256 256 241 220 216 224 227 213 217 245 209 195 213 215 225 215 219 171 218 209 218 212 182 204 211 212 213 201 189 190 191 188 186 184 187 183 186 180
169 355 357 28 79 95 123 195 233 259 286 274 251 276 283 276 269 263 255 247 244 247 241 239 234 241 248 254 250 228 225 224 220 216 230 225 206 219 190 225 220 212 227 215 210 217 206 191 211 194 193 192 193 204 199 197 190 188 190 189 187 183 180
38 12 49 23 358 6 115 190 243 265 269 291 287 267 275 281 284 285 281 273 266 260 253 249 250 246 248 250 250 247 243 245 223 217 209 228 220 220 207 204 207 204 219 228 213 219 252 238 191 196 196 183 186 201 191 198 193 192 191 187 189 183 183
322 72 57 350 310 333 281 223 223 251 272 274 293 296 286 285 286 280 265 261 266 270 270 261 252 250 250 247 248 247 243 244 240 223 220 224 219 216 215 208 210 198 200 206 202 200 203 204 200 204 191 197 201 183 196 193 192 191 190 187 190 191 186
14 17 25 336 326 297 276 280 241 254 260 271 282 285 285 280 277 279 275 277 273 271 268 264 264 257 251 245 243 240 246 246 247 246 235 224 222 220 210 209 217 214 214 211 202 188 196 215 198 190 188 183 200 206 160 188 190 192 193 193 192 192 189
27 32 46 40 0 314 325 315 296 252 261 268 261 264 272 271 266 266 264 264 273 273 272 268 263 261 255 247 239 234 239 240 233 235 244 246 242 228 215 214 221 219 226 216 195 188 202 222 223 189 197 171 184 177 157 166 186 196 196 192 189 193 188
40 42 35 33 2 347 344 327 299 284 273 254 267 261 260 272 270 257 265 267 260 268 269 267 268 268 267 261 253 243 239 240 232 232 228 230 237 240 226 211 211 210 217 210 205 197 200 194 195 189 173 189 181 168 122 174 166 163 199 199 187 189 188
41 36 30 20 357 340 335 325 305 284 259 268 256 266 277 276 279 286 279 275 273 265 266 269 265 263 260 258 255 253 247 236 227 226 227 226 230 228 217 212 216 213 213 205 197 200 199 200 193 189 174 166 165 167 165 167 160 203 174 179 181 187 191
35 40 25 10 351 342 317 302 305 304 295 290 287 287 286 282 282 280 278 274 275 275 273 271 267 260 257 255 253 250 249 237 231 227 231 230 236 233 227 219 218 213 208 198 195 197 198 198 188 168 181 176 169 179 164 181 186 208 178 167 180 193 187
23 16 356 332 325 321 312 304 297 299 301 299 293 289 288 288 280 277 281 282 277 274 273 270 267 263 261 258 256 252 251 243 235 238 233 230 233 232 226 213 213 207 204 193 187 194 197 195 178 162 173 184 186 170 175 189 194 187 190 184 175 187 188
0 335 314 315 326 340 337 338 337 332 325 308 299 296 297 295 293 294 287 284 279 274 270 268 267 269 269 267 259 251 244 241 235 239 240 236 235 230 212 220 218 211 195 187 188 190 194 186 184 179 179 189 201 190 178 187 201 193 187 188 186 174 183
350 346 345 353 359 359 353 354 347 325 315 323 320 318 313 305 302 298 289 285 282 278 274 274 273 272 271 269 262 263 257 242 242 248 242 233 236 217 203 213 204 218 196 195 193 187 183 181 190 186 193 183 210 273 199 181 186 211 180 190 191 173 175
352 359 357 11 6 8 9 359 346 346 341 331 333 324 319 312 307 305 299 292 290 285 283 280 276 268 268 261 258 255 251 245 244 245 248 233 231 203 214 209 198 209 192 192 196 186 173 176 176 182 188 178 175 132 190 199 215 210 205 190 180 170 172
5 17 26 25 21 14 8 358 353 340 329 352 341 339 329 321 314 308 305 301 297 297 293 290 281 268 261 264 255 249 249 243 246 247 241 247 238 230 220 212 203 192 190 193 192 183 179 179 178 178 179 174 177 182 182 165 180 120 202 179 164 177 173
31 31 30 24 18 10 5 351 336 332 339 346 347 342 340 331 325 317 311 309 305 302 300 289 281 272 258 258 259 246 246 247 246 243 231 235 233 229 202 232 213 187 182 197 183 180 180 174 172 166 167 169 172 159 156 141 173 161 175 152 159 120 138
30 28 25 17 17 2 350 337 337 338 345 348 349 348 346 341 335 325 322 320 315 310 303 299 295 287 267 254 257 255 244 245 245 242 215 193 226 226 200 212 209 194 174 186 179 174 166 166 169 170 163 150 156 160 161 177 176 190 166 185 169 148 163
31 23 23 6 3 345 343 342 343 351 353 353 354 352 357 353 348 346 346 342 335 320 311 313 313 302 288 277 267 272 273 253 246 244 227 190 182 216 223 219 209 189 171 186 186 175 171 166 163 155 152 164 166 166 181 179 183 158 153 150 178 166 185
29 18 12 3 359 352 354 354 356 357 360 357 353 356 358 357 355 351 346 343 340 339 334 332 334 332 319 304 296 289 284 261 241 226 238 232 216 208 224 222 180 176 147 176 178 182 179 180 178 177 182 176 169 174 175 170 178 176 165 172 160 159 156
23 11 7 4 3 1 2 5 0 3 1 353 353 356 358 357 360 353 348 343 341 340 336 333 340 340 333 323 323 299 275 239 230 211 214 195 204 215 250 239 211 205 190 181 196 186 180 179 170 183 185 171 176 168 170 180 184 181 175 169 166 136 168
16 10 9 10 9 8 10 11 11 6 1 357 360 359 0 359 354 345 343 339 343 341 334 332 329 337 332 326 323 330 299 221 198 207 85 48 53 45 350 273 218 205 209 216 213 203 189 182 181 191 182 180 174 165 172 184 184 176 167 158 175 166 148
31 26 21 17 14 15 19 20 16 8 3 3 1 1 357 352 344 341 341 342 339 334 330 330 331 334 330 323 321 335 336 340 20 38 43 40 28 30 26 12 19 269 217 210 225 206 188 186 185 189 183 177 168 163 176 180 177 175 168 170 176 167 174
48 42 29 24 21 22 22 19 10 6 7 4 1 356 354 351 347 346 344 345 346 341 338 337 328 324 319 324 321 354 355 11 23 18 12 54 67 49 350 333 154 209 229 231 232 240 189 171 177 181 179 168 164 181 186 185 178 174 177 165 152 134 146
40 43 27 26 24 23 23 17 12 12 12 10 2 3 355 357 355 352 356 1 3 358 2 354 346 352 350 334 25 25 31 29 29 27 20 18 31 46 46 352 306 248 241 231 207 180 176 181 183 174 159 167 179 182 183 182 180 188 178 174 173 164 167
42 36 29 29 28 28 25 20 15 16 12 11 7 3 358 4 8 5 16 20 18 14 14 7 3 28 27 32 45 43 43 35 32 33 29 26 25 22 22 14 354 310 292 297 345 117 164 206 201 143 139 170 189 179 174 172 188 184 188 194 176 172 184
43 36 36 36 34 30 26 22 22 20 16 13 10 6 12 14 13 13 25 25 23 18 21 10 13 22 32 33 40 51 48 45 40 36 32 31 21 14 16 21 12 354 336 328 20 75 108 206 262 130 96 91 82 60 98 184 179 179 192 196 184 194 187
39 45 45 42 38 35 31 32 30 26 22 15 10 20 15 14 12 17 22 27 23 19 22 9 13 19 23 27 28 45 46 48 47 42 39 33 27 18 12 22 26 20 3 7 32 59 95 71 68 78 71 62 46 39 29 16 347 200 183 185 203 202 196
47 51 54 47 40 36 34 35 35 33 27 22 19 20 20 28 26 23 26 27 23 17 21 10 13 15 19 24 26 35 46 46 46 46 40 36 31 27 23 24 31 28 18 15 12 60 78 80 72 66 58 50 41 29 26 19 6 98 145 169 154 170 236
52 51 52 49 43 39 35 35 36 33 33 31 34 34 30 33 30 30 31 31 35 29 22 18 18 16 16 21 23 31 43 46 46 44 41 45 42 31 23 22 33 34 30 21 20 39 64 72 78 74 66 54 54 45 39 25 8 8 26 60 89 97 59
59 56 50 44 43 41 39 37 38 31 42 47 47 47 43 42 37 36 33 34 36 32 24 21 22 22 20 17 27 41 42 47 45 40 42 36 46 37 30 26 25 30 20 33 29 44 54 68 69 74 74 70 65 61 54 46 50 55 54 52 48 50 43
65 61 61 50 45 43 41 39 37 28 50 49 49 46 47 46 43 42 38 36 38 34 29 19 23 26 25 20 33 43 42 48 48 43 39 29 42 40 33 34 39 41 38 38 31 54 59 70 64 61 69 67 63 60 44 29 43 54 61 67 66 59 56
68 68 65 57 48 46 44 40 37 26 48 54 54 51 54 56 50 46 43 41 37 41 34 21 21 24 27 26 36 44 41 47 48 45 44 41 38 39 37 38 45 52 52 46 40 41 55 66 59 57 62 64 58 53 37 20 34 39 43 54 55 54 46
67 68 68 59 50 50 41 38 29 35 46 55 59 57 56 59 57 50 45 44 41 44 39 26 24 24 26 28 38 48 48 54 51 42 45 44 41 37 34 34 37 46 53 52 51 49 50 64 69 53 63 68 65 59 39 35 42 42 36 36 33 41 35
67 70 73 67 57 52 42 39 31 43 49 53 62 57 56 56 58 52 45 45 43 39 40 36 28 29 31 30 29 48 47 50 46 47 49 49 45 37 35 34 33 37 50 51 48 49 52 57 71 63 60 66 68 65 46 57 49 56 56 51 44 48 47
64 64 63 62 59 53 41 41 36 44 52 51 61 61 57 54 57 52 45 44 47 42 36 38 33 33 34 35 33 39 48 43 36 47 57 53 46 43 37 36 36 39 49 50 51 51 52 51 54 61 56 63 60 73 64 63 53 53 57 55 51 48 45
59 65 62 60 62 55 39 42 44 45 51 58 61 60 57 55 57 55 47 42 41 42 36 35 38 34 35 38 39 41 50 40 29 52 59 55 48 42 40 38 35 40 50 52 51 51 51 54 53 58 53 55 51 50 54 58 61 60 57 51 49 48 46
66 65 63 58 62 58 40 48 49 49 57 62 64 63 55 53 57 56 53 43 37 38 36 38 36 40 37 40 41 43 44 45 40 52 60 58 48 45 39 42 34 40 52 52 54 51 49 49 52 52 53 52 51 50 54 55 55 59 57 54 52 52 43
69 68 69 67 60 58 51 52 57 52 54 61 66 65 52 53 58 55 54 45 37 30 30 39 38 39 41 40 42 44 45 45 47 55 57 61 52 49 47 43 44 44 49 51 52 52 50 49 48 43 42 44 50 53 58 58 56 58 61 56 56 53 49